Weather History for KMZZ - May, 2014

Change the Weather History Date:

Saturday, May 3, 2014

  Actual Average (KMIE) Record (KMIE)
Temperature  
Mean Temperature 56 °F 58 °F  
Max Temperature 66 °F 68 °F 86 °F (2012)
Min Temperature 45 °F 47 °F 29 °F (1986)
Degree Days  
Heating Degree Days 10 8  
Month to date heating degree days 26  
Since 1 July heating degree days 5618  
Cooling Degree Days 0 1  
Month to date cooling degree days 3  
Year to date cooling degree days 18  
Growing Degree Days 6 (Base 50)    
Moisture  
Dew Point 36 °F    
Average Humidity 53    
Maximum Humidity 80    
Minimum Humidity 25    
Precipitation  
Precipitation 0.00 in 0.12 in 0.71 in (2008)
Month to date precipitation 0.36  
Year to date precipitation 11.52  
Sea Level Pressure  
Sea Level Pressure 29.81 in    
Wind  
Wind Speed 15 mph (WSW)    
Max Wind Speed 28 mph    
Max Gust Speed 38 mph    
Visibility 9 miles    
Events      
T = Trace of Precipitation, MM = Missing Value Source: NWS Daily Summary

Daily Weather History Graph

Daily Weather History Graph

Search for Another Location

Airport or City:

Trip Planner

Search our weather history database for the weather conditions in past years. The results will help you decide how hot, cold, wet, or windy it might be!

Date:

Astronomy

May. 03, 2014 Rise Set
Actual Time 6:39 AM EDT 8:40 PM EDT
Civil Twilight 6:09 AM EDT 9:10 PM EDT
Nautical Twilight 5:33 AM EDT 9:46 PM EDT
Astronomical Twilight 4:53 AM EDT 10:26 PM EDT
Moon 10:08 AM EDT (5/3) 12:01 AM EDT (5/3)
Length of Visible Light 15h 00m
Length of Day
14h 01m
Waxing Crescent, 19% of the Moon is Illuminated
May 3
Waxing Crescent
May 6
First Quarter
May 14
Full
May 21
Last Quarter
May 28
New

Hourly Weather History & Observations

Time (EDT) Temp. Windchill Dew Point Humidity Pressure Visibility Wind Dir Wind Speed Gust Speed Precip Events Conditions
12:15 AM 48.2 °F - 40.5 °F 75% 29.84 in 10.0 mi SW 10.4 mph - N/A   Overcast
12:35 AM 48.2 °F - 40.5 °F 75% 29.84 in 10.0 mi SW 10.4 mph - N/A   Overcast
12:55 AM 47.8 °F - 40.5 °F 76% 29.84 in 10.0 mi SW 10.4 mph - N/A   Overcast
1:15 AM 47.7 °F - 40.6 °F 77% 29.84 in 7.0 mi SW 9.2 mph - N/A   Overcast
1:35 AM 47.7 °F - 41.0 °F 78% 29.83 in 7.0 mi SW 10.4 mph - N/A   Overcast
1:55 AM 47.7 °F - 40.6 °F 77% 29.83 in 7.0 mi SSW 9.2 mph - N/A   Overcast
2:15 AM 47.5 °F - 40.5 °F 77% 29.82 in 10.0 mi SSW 9.2 mph - N/A   Overcast
2:35 AM 47.3 °F - 40.5 °F 77% 29.81 in 10.0 mi SSW 11.5 mph - N/A   Overcast
2:55 AM 47.3 °F - 40.5 °F 77% 29.81 in 7.0 mi SSW 10.4 mph - N/A   Overcast
3:15 AM 47.1 °F - 41.0 °F 79% 29.80 in 10.0 mi SSW 8.1 mph - N/A   Overcast
3:35 AM 46.8 °F - 40.8 °F 80% 29.79 in 5.0 mi SSW 12.7 mph - N/A   Haze
3:55 AM 46.9 °F - 40.5 °F 78% 29.78 in 10.0 mi SSW 11.5 mph - N/A   Mostly Cloudy
4:15 AM 46.4 °F 40.7 °F 40.1 °F 79% 29.77 in 10.0 mi South 12.7 mph - N/A   Mostly Cloudy
4:35 AM 46.2 °F 39.8 °F 40.3 °F 80% 29.77 in 10.0 mi SSW 15.0 mph 20.7 mph N/A   Overcast
4:55 AM 45.9 °F 39.7 °F 40.1 °F 80% 29.76 in 10.0 mi South 13.8 mph - N/A   Overcast
5:15 AM 45.9 °F 39.4 °F 39.9 °F 80% 29.75 in 10.0 mi SSW 15.0 mph - N/A   Overcast
5:35 AM 46.0 °F 39.6 °F 39.6 °F 78% 29.75 in 7.0 mi SSW 15.0 mph - N/A   Mostly Cloudy
5:55 AM 46.2 °F 39.8 °F 39.6 °F 78% 29.75 in 10.0 mi SSW 15.0 mph - N/A   Mostly Cloudy
6:15 AM 45.7 °F 39.8 °F 39.2 °F 78% 29.75 in 10.0 mi SW 12.7 mph - N/A   Scattered Clouds
6:35 AM 46.0 °F 39.3 °F 38.8 °F 76% 29.75 in 10.0 mi SW 16.1 mph 23.0 mph N/A   Scattered Clouds
6:55 AM 46.6 °F - 38.7 °F 74% 29.75 in 10.0 mi SW 12.7 mph - N/A   Scattered Clouds
7:15 AM 46.4 °F 40.7 °F 38.8 °F 75% 29.75 in 7.0 mi SW 12.7 mph - N/A   Clear
7:35 AM 47.1 °F - 39.2 °F 74% 29.76 in 10.0 mi SW 15.0 mph 20.7 mph N/A   Scattered Clouds
7:55 AM 48.2 °F - 39.4 °F 72% 29.76 in 7.0 mi SW 15.0 mph - N/A   Scattered Clouds
8:15 AM 49.1 °F - 39.7 °F 70% 29.76 in 10.0 mi WSW 15.0 mph - N/A   Clear
8:35 AM 50.5 °F - 40.3 °F 68% 29.76 in 7.0 mi WSW 17.3 mph - N/A   Clear
8:55 AM 51.8 °F - 40.3 °F 65% 29.76 in 7.0 mi WSW 19.6 mph 26.5 mph N/A   Clear
9:15 AM 52.9 °F - 40.5 °F 63% 29.76 in 10.0 mi WSW 18.4 mph 26.5 mph N/A   Clear
9:35 AM 54.1 °F - 41.4 °F 62% 29.76 in 10.0 mi West 23.0 mph 27.6 mph N/A   Clear
9:55 AM 55.4 °F - 41.5 °F 60% 29.76 in 10.0 mi West 18.4 mph 26.5 mph N/A   Clear
10:15 AM 57.0 °F - 41.4 °F 56% 29.76 in 10.0 mi West 23.0 mph - N/A   Clear
10:35 AM 58.1 °F - 40.8 °F 53% 29.77 in 10.0 mi West 25.3 mph 33.4 mph N/A   Scattered Clouds
10:55 AM 58.1 °F - 40.5 °F 52% 29.77 in 10.0 mi West 26.5 mph 33.4 mph N/A   Scattered Clouds
11:15 AM 58.8 °F - 40.3 °F 50% 29.77 in 10.0 mi West 26.5 mph - N/A   Clear
11:35 AM 59.4 °F - 40.5 °F 50% 29.78 in 10.0 mi WNW 26.5 mph 36.8 mph N/A   Scattered Clouds
11:55 AM 59.9 °F - 39.9 °F 48% 29.79 in 7.0 mi West 27.6 mph 36.8 mph N/A   Mostly Cloudy
12:15 PM 60.1 °F - 39.2 °F 46% 29.79 in 10.0 mi WNW 25.3 mph 32.2 mph N/A   Mostly Cloudy
12:35 PM 60.8 °F - 37.8 °F 42% 29.80 in 7.0 mi WNW 21.9 mph 34.5 mph N/A   Scattered Clouds
12:55 PM 60.6 °F - 36.1 °F 40% 29.81 in 10.0 mi West 23.0 mph 34.5 mph N/A   Scattered Clouds
1:15 PM 61.9 °F - 34.7 °F 36% 29.81 in 10.0 mi WNW 25.3 mph 34.5 mph N/A   Mostly Cloudy
1:35 PM 62.4 °F - 34.5 °F 35% 29.82 in 10.0 mi WNW 25.3 mph 33.4 mph N/A   Scattered Clouds
1:55 PM 62.6 °F - 33.6 °F 34% 29.82 in 10.0 mi West 23.0 mph 32.2 mph N/A   Scattered Clouds
2:15 PM 63.3 °F - 32.9 °F 32% 29.82 in 10.0 mi WNW 25.3 mph 31.1 mph N/A   Scattered Clouds
2:35 PM 63.7 °F - 31.8 °F 30% 29.82 in 10.0 mi WNW 20.7 mph 29.9 mph N/A   Scattered Clouds
2:55 PM 64.8 °F - 31.8 °F 29% 29.82 in 10.0 mi West 19.6 mph 28.8 mph N/A   Scattered Clouds
3:15 PM 65.1 °F - 30.7 °F 28% 29.82 in 7.0 mi WNW 24.2 mph 29.9 mph N/A   Scattered Clouds
3:35 PM 65.8 °F - 29.3 °F 25% 29.82 in 10.0 mi WNW 19.6 mph 31.1 mph N/A   Scattered Clouds
3:55 PM 66.6 °F - 29.5 °F 25% 29.82 in 10.0 mi West 24.2 mph 34.5 mph N/A   Scattered Clouds
4:15 PM 66.6 °F - 30.0 °F 26% 29.82 in 10.0 mi West 25.3 mph 38.0 mph N/A   Mostly Cloudy
4:35 PM 65.8 °F - 30.4 °F 27% 29.82 in 10.0 mi WNW 23.0 mph 31.1 mph N/A   Mostly Cloudy
4:55 PM 65.3 °F - 29.7 °F 26% 29.83 in 10.0 mi West 24.2 mph 36.8 mph N/A   Mostly Cloudy
5:15 PM 65.7 °F - 30.2 °F 27% 29.83 in 10.0 mi WNW 23.0 mph 27.6 mph N/A   Mostly Cloudy
5:35 PM 66.2 °F - 30.6 °F 26% 29.84 in 7.0 mi WNW 20.7 mph 35.7 mph N/A   Scattered Clouds
5:55 PM 65.8 °F - 30.0 °F 26% 29.84 in 10.0 mi West 24.2 mph 29.9 mph N/A   Mostly Cloudy
6:15 PM 65.5 °F - 30.6 °F 27% 29.85 in 10.0 mi West 25.3 mph 33.4 mph N/A   Scattered Clouds
6:35 PM 64.8 °F - 30.9 °F 28% 29.85 in 7.0 mi WNW 18.4 mph 29.9 mph N/A   Mostly Cloudy
6:55 PM 65.5 °F - 30.0 °F 26% 29.85 in 10.0 mi WNW 24.2 mph 32.2 mph N/A   Mostly Cloudy
7:15 PM 65.1 °F - 29.1 °F 26% 29.85 in 10.0 mi WNW 19.6 mph 28.8 mph N/A   Scattered Clouds
7:35 PM 64.2 °F - 29.3 °F 27% 29.86 in 10.0 mi WNW 26.5 mph 33.4 mph N/A   Scattered Clouds
7:55 PM 63.5 °F - 30.0 °F 28% 29.87 in 10.0 mi WNW 15.0 mph 18.4 mph N/A   Scattered Clouds
8:15 PM 62.1 °F - 30.7 °F 31% 29.87 in 10.0 mi West 11.5 mph - N/A   Scattered Clouds
8:35 PM 59.7 °F - 32.2 °F 35% 29.88 in 10.0 mi West 8.1 mph - N/A   Mostly Cloudy
8:55 PM 58.3 °F - 33.6 °F 39% 29.88 in 7.0 mi West 6.9 mph - N/A   Overcast
9:15 PM 57.9 °F - 33.8 °F 40% 29.88 in 10.0 mi WSW 8.1 mph - N/A   Overcast
9:35 PM 57.6 °F - 33.8 °F 41% 29.88 in 10.0 mi SW 8.1 mph - N/A   Mostly Cloudy
9:55 PM 54.9 °F - 35.4 °F 48% 29.89 in 10.0 mi WSW 8.1 mph - N/A   Clear
10:15 PM 54.0 °F - 35.6 °F 50% 29.89 in 10.0 mi WSW 9.2 mph - N/A   Clear
10:35 PM 54.5 °F - 34.7 °F 47% 29.89 in 10.0 mi WSW 10.4 mph - N/A   Clear
10:55 PM 54.5 °F - 34.3 °F 47% 29.89 in 10.0 mi SW 10.4 mph - N/A   Scattered Clouds
11:15 PM 54.5 °F - 34.9 °F 48% 29.89 in 7.0 mi SW 11.5 mph - N/A   Overcast
11:35 PM 54.5 °F - 35.1 °F 48% 29.89 in 10.0 mi WSW 10.4 mph - N/A   Mostly Cloudy
11:55 PM 54.3 °F - 34.9 °F 48% 29.89 in 10.0 mi WSW 11.5 mph - N/A   Clear